Location: Rounton
(54.4000°N, 1.3500°W)
Time: 04:55:24
(UTC+00:00)

BlueWalker 3 - Pass Details

Date: 09 September 2025
Orbit: 455 x 462 km, 53.2° (Epoch: 08 December)

Event Time Altitude Azimuth Distance (km) Brightness Sun altitude
Exits shadow 04:00:48 16° 146° (SE) 1,266 3.9 -19.8°
Drops below altitude 10° 04:01:44 10° 138° (SE) 1,606 4.5 -19.7°
Enters shadow 05:09:03 -47° 310° (NW) 9,969 8.4 -11.6°
